WXM80 ListenWXM80 Stop

You find our weather info also at:

UK Metoffice

WeatherCloud

Weather Underground

Northeastern Weather Network

AWEKAS

Citizen Weather Observer Program (CWOP)

HAMweather, WeatherForYou, PWS Weather


Weather Underground History page Text

Daily Summary for May 17, 2016 Units:  English    Metric   Both
« Previous Day
Next Day »
Daily Weekly Monthly Yearly Custom
  High: Low: Average:
Temperature: 70.6 °F 52.5 °F 59.9 °F
Dew Point: 51.2 °F 38.6 °F 44.7 °F
Humidity: 86 % 40 % 59 %
Wind Speed: 9.6 mph 0.0 mph 3.1 mph
Wind Gust: 18.4 mph - -
Wind:- - SW
Pressure: 30.17 in 30.08 in -
Precipitation: 0.00 in    
Historical Graphs
 
 
Tabular Data for May 17, 2016
Time Temperature Dew Point Pressure Wind Wind Speed Wind Gust Humidity Rainfall Rate (Hourly)
00:03 52.8 °F 39.3 °F 30.10 in WSW 1.0 mph 1.2 mph 60 % 0.00 in
00:08 52.7 °F 39.2 °F 30.10 in WSW 1.3 mph 2.3 mph 60 % 0.00 in
00:14 52.6 °F 38.7 °F 30.10 in WSW 0.6 mph 1.2 mph 59 % 0.00 in
00:19 52.5 °F 39.0 °F 30.10 in WSW 2.8 mph 5.8 mph 60 % 0.00 in
00:24 52.5 °F 38.6 °F 30.10 in WSW 1.8 mph 4.0 mph 59 % 0.00 in
00:29 52.5 °F 39.0 °F 30.10 in WSW 1.5 mph 3.5 mph 60 % 0.00 in
00:34 52.6 °F 39.1 °F 30.10 in SSW 2.9 mph 5.0 mph 60 % 0.00 in
00:39 52.8 °F 38.9 °F 30.11 in SSW 2.8 mph 4.6 mph 59 % 0.00 in
00:44 52.9 °F 39.0 °F 30.11 in SW 2.6 mph 4.6 mph 59 % 0.00 in
00:49 53.1 °F 39.1 °F 30.11 in SSW 1.7 mph 3.5 mph 59 % 0.00 in
00:54 53.3 °F 39.3 °F 30.11 in WSW 3.3 mph 5.8 mph 59 % 0.00 in
00:59 53.5 °F 39.5 °F 30.11 in SSW 1.1 mph 2.3 mph 59 % 0.00 in
01:05 53.5 °F 39.5 °F 30.11 in SW 1.2 mph 4.6 mph 59 % 0.00 in
01:10 53.6 °F 39.6 °F 30.11 in WSW 1.4 mph 3.5 mph 59 % 0.00 in
01:15 53.7 °F 39.7 °F 30.11 in SW 0.8 mph 3.5 mph 59 % 0.00 in
01:20 53.8 °F 39.8 °F 30.10 in WSW 3.5 mph 7.0 mph 59 % 0.00 in
01:25 53.9 °F 39.9 °F 30.10 in SSW 3.3 mph 5.8 mph 59 % 0.00 in
01:30 54.0 °F 40.0 °F 30.11 in SW 2.6 mph 3.5 mph 59 % 0.00 in
01:35 54.1 °F 40.1 °F 30.11 in SSW 2.4 mph 4.6 mph 59 % 0.00 in
01:40 54.4 °F 39.9 °F 30.11 in SW 5.2 mph 10.4 mph 58 % 0.00 in
01:45 54.6 °F 40.1 °F 30.10 in SW 1.8 mph 3.5 mph 58 % 0.00 in
01:50 54.7 °F 40.2 °F 30.11 in SW 2.9 mph 6.9 mph 58 % 0.00 in
01:56 54.8 °F 39.8 °F 30.11 in SW 1.0 mph 2.3 mph 57 % 0.00 in
02:01 54.8 °F 39.8 °F 30.11 in SSW 2.4 mph 5.0 mph 57 % 0.00 in
02:06 54.9 °F 39.5 °F 30.11 in SSW 3.6 mph 9.2 mph 56 % 0.00 in
02:11 54.9 °F 39.9 °F 30.11 in WSW 2.4 mph 5.0 mph 57 % 0.00 in
02:21 55.0 °F 39.6 °F 30.11 in WSW 2.1 mph 3.5 mph 56 % 0.00 in
02:26 55.0 °F 39.6 °F 30.11 in SSW 1.9 mph 5.8 mph 56 % 0.00 in
02:31 55.0 °F 39.6 °F 30.11 in WSW 2.2 mph 3.5 mph 56 % 0.00 in
02:36 55.0 °F 39.6 °F 30.11 in SW 1.3 mph 3.5 mph 56 % 0.00 in
02:41 55.1 °F 39.7 °F 30.11 in SW 2.4 mph 5.8 mph 56 % 0.00 in
02:52 55.1 °F 39.7 °F 30.11 in SW 2.9 mph 6.0 mph 56 % 0.00 in
02:57 55.0 °F 39.6 °F 30.11 in WSW 1.3 mph 4.6 mph 56 % 0.00 in
03:02 55.0 °F 39.6 °F 30.11 in SSW 2.0 mph 3.5 mph 56 % 0.00 in
03:07 55.0 °F 39.6 °F 30.11 in WSW 3.2 mph 5.8 mph 56 % 0.00 in
03:12 55.0 °F 39.6 °F 30.11 in SW 3.9 mph 5.8 mph 56 % 0.00 in
03:17 55.0 °F 40.0 °F 30.11 in SSW 2.3 mph 5.8 mph 57 % 0.00 in
03:22 55.0 °F 40.0 °F 30.11 in WSW 1.4 mph 4.6 mph 57 % 0.00 in
03:27 54.9 °F 39.9 °F 30.11 in SW 1.5 mph 3.5 mph 57 % 0.00 in
03:32 54.9 °F 39.9 °F 30.11 in SW 1.9 mph 6.9 mph 57 % 0.00 in
03:38 54.9 °F 39.9 °F 30.11 in SW 1.9 mph 3.5 mph 57 % 0.00 in
03:43 54.8 °F 39.8 °F 30.11 in SW 2.1 mph 9.2 mph 57 % 0.00 in
03:48 54.7 °F 40.2 °F 30.11 in SW 2.8 mph 4.6 mph 58 % 0.00 in
03:53 54.6 °F 40.1 °F 30.11 in SW 1.9 mph 3.5 mph 58 % 0.00 in
03:58 54.5 °F 40.5 °F 30.11 in SW 2.3 mph 4.0 mph 59 % 0.00 in
04:03 54.4 °F 40.8 °F 30.11 in SW 3.8 mph 6.9 mph 60 % 0.00 in
04:08 54.4 °F 40.8 °F 30.12 in SSW 2.8 mph 5.0 mph 60 % 0.00 in
04:13 54.4 °F 40.4 °F 30.12 in SSW 2.7 mph 5.8 mph 59 % 0.00 in
04:18 54.5 °F 40.9 °F 30.12 in SSW 0.3 mph 6.9 mph 60 % 0.00 in
04:23 54.5 °F 40.5 °F 30.12 in SW 5.7 mph 11.5 mph 59 % 0.00 in
04:29 54.6 °F 40.6 °F 30.12 in SW 3.7 mph 7.0 mph 59 % 0.00 in
04:34 54.7 °F 40.2 °F 30.12 in West 2.8 mph 8.1 mph 58 % 0.00 in
04:39 54.8 °F 40.7 °F 30.12 in SW 2.6 mph 7.0 mph 59 % 0.00 in
04:44 54.8 °F 40.3 °F 30.12 in SSW 4.6 mph 9.2 mph 58 % 0.00 in
04:49 55.0 °F 40.9 °F 30.12 in SSW 2.2 mph 3.5 mph 59 % 0.00 in
04:54 55.0 °F 40.9 °F 30.12 in WSW 2.9 mph 3.5 mph 59 % 0.00 in
04:59 55.1 °F 41.0 °F 30.12 in SW 2.8 mph 4.6 mph 59 % 0.00 in
05:04 55.1 °F 41.0 °F 30.12 in SSW 1.6 mph 4.6 mph 59 % 0.00 in
05:09 55.1 °F 41.0 °F 30.12 in SSW 2.2 mph 3.5 mph 59 % 0.00 in
05:14 55.1 °F 41.0 °F 30.12 in SW 2.8 mph 4.0 mph 59 % 0.00 in
05:20 55.1 °F 41.0 °F 30.13 in WSW 0.9 mph 3.5 mph 59 % 0.00 in
05:25 55.1 °F 40.6 °F 30.13 in SW 1.7 mph 5.8 mph 58 % 0.00 in
05:30 55.1 °F 41.0 °F 30.13 in SW 1.8 mph 3.5 mph 59 % 0.00 in
05:35 55.1 °F 41.0 °F 30.13 in WSW 1.4 mph 3.5 mph 59 % 0.00 in
05:40 55.1 °F 41.0 °F 30.13 in SW 1.8 mph 3.5 mph 59 % 0.00 in
05:45 55.1 °F 41.0 °F 30.14 in SW 2.0 mph 4.0 mph 59 % 0.00 in
05:50 55.1 °F 41.0 °F 30.14 in SSW 3.4 mph 4.6 mph 59 % 0.00 in
05:55 55.0 °F 40.9 °F 30.14 in SSW 2.4 mph 3.5 mph 59 % 0.00 in
06:00 55.0 °F 40.9 °F 30.14 in SW 1.9 mph 3.5 mph 59 % 0.00 in
06:05 55.0 °F 40.9 °F 30.14 in SW 2.6 mph 3.5 mph 59 % 0.00 in
06:11 55.0 °F 40.9 °F 30.14 in SSW 2.5 mph 4.6 mph 59 % 0.00 in
06:16 55.1 °F 41.0 °F 30.14 in SW 4.3 mph 6.9 mph 59 % 0.00 in
06:21 55.1 °F 41.0 °F 30.14 in SSW 3.3 mph 4.6 mph 59 % 0.00 in
06:26 55.1 °F 41.5 °F 30.14 in WSW 3.3 mph 4.0 mph 60 % 0.00 in
06:31 55.1 °F 41.5 °F 30.14 in SSW 2.9 mph 4.6 mph 60 % 0.00 in
06:36 55.2 °F 41.5 °F 30.15 in SW 4.3 mph 7.0 mph 60 % 0.00 in
06:41 55.3 °F 41.2 °F 30.15 in SW 3.7 mph 4.6 mph 59 % 0.00 in
06:46 55.5 °F 41.4 °F 30.15 in SW 4.8 mph 7.0 mph 59 % 0.00 in
06:51 55.7 °F 41.6 °F 30.15 in WSW 2.4 mph 3.5 mph 59 % 0.00 in
06:56 55.8 °F 41.7 °F 30.15 in SW 3.0 mph 5.8 mph 59 % 0.00 in
07:02 55.9 °F 41.8 °F 30.15 in SW 3.5 mph 9.2 mph 59 % 0.00 in
07:07 56.0 °F 41.9 °F 30.15 in SW 2.6 mph 8.1 mph 59 % 0.00 in
07:12 56.2 °F 42.1 °F 30.15 in West 2.2 mph 3.5 mph 59 % 0.00 in
07:17 56.3 °F 42.1 °F 30.15 in SW 2.6 mph 4.0 mph 59 % 0.00 in
07:22 56.5 °F 42.3 °F 30.15 in SSW 3.4 mph 4.6 mph 59 % 0.00 in
07:27 56.7 °F 42.5 °F 30.15 in SW 1.7 mph 3.5 mph 59 % 0.00 in
07:37 57.1 °F 42.5 °F 30.15 in SSW 3.8 mph 9.2 mph 58 % 0.00 in
07:42 57.4 °F 42.7 °F 30.15 in SSW 4.4 mph 9.2 mph 58 % 0.00 in
07:47 57.6 °F 42.9 °F 30.15 in SW 3.9 mph 6.9 mph 58 % 0.00 in
07:53 57.9 °F 42.3 °F 30.16 in SW 4.8 mph 9.2 mph 56 % 0.00 in
07:58 58.1 °F 42.0 °F 30.16 in WSW 2.8 mph 4.6 mph 55 % 0.00 in
08:03 58.4 °F 42.3 °F 30.16 in SSW 4.1 mph 8.1 mph 55 % 0.00 in
08:08 58.6 °F 42.5 °F 30.16 in West 4.8 mph 7.0 mph 55 % 0.00 in
08:13 58.9 °F 42.8 °F 30.16 in SSW 4.2 mph 6.9 mph 55 % 0.00 in
08:18 59.2 °F 43.0 °F 30.16 in SW 4.0 mph 8.1 mph 55 % 0.00 in
08:23 59.5 °F 42.8 °F 30.16 in SW 4.8 mph 6.9 mph 54 % 0.00 in
08:28 59.8 °F 42.6 °F 30.16 in SSW 3.6 mph 10.4 mph 53 % 0.00 in
08:33 60.1 °F 42.4 °F 30.17 in SW 3.3 mph 5.0 mph 52 % 0.00 in
08:44 60.9 °F 43.1 °F 30.17 in SW 4.7 mph 6.9 mph 52 % 0.00 in
08:49 61.4 °F 43.1 °F 30.17 in SW 4.2 mph 8.1 mph 51 % 0.00 in
08:54 61.8 °F 42.4 °F 30.17 in WSW 3.5 mph 8.1 mph 49 % 0.00 in
08:59 62.0 °F 43.7 °F 30.17 in WSW 3.0 mph 8.1 mph 51 % 0.00 in
09:04 62.1 °F 43.2 °F 30.17 in SW 4.5 mph 7.0 mph 50 % 0.00 in
09:09 62.2 °F 42.8 °F 30.17 in SSW 6.2 mph 6.9 mph 49 % 0.00 in
09:14 62.3 °F 42.9 °F 30.17 in SSW 4.0 mph 8.1 mph 49 % 0.00 in
09:19 62.4 °F 42.4 °F 30.17 in SSW 4.7 mph 11.5 mph 48 % 0.00 in
09:24 62.5 °F 43.1 °F 30.17 in WSW 4.1 mph 4.6 mph 49 % 0.00 in
09:29 62.7 °F 43.3 °F 30.17 in SSW 5.9 mph 10.4 mph 49 % 0.00 in
09:35 62.8 °F 43.3 °F 30.17 in SSW 4.9 mph 6.9 mph 49 % 0.00 in
09:40 63.0 °F 44.1 °F 30.17 in WSW 4.4 mph 9.2 mph 50 % 0.00 in
09:50 63.3 °F 43.3 °F 30.17 in West 3.7 mph 8.1 mph 48 % 0.00 in
09:55 63.5 °F 43.4 °F 30.17 in SSW 3.8 mph 6.0 mph 48 % 0.00 in
10:00 63.8 °F 43.7 °F 30.17 in SW 3.0 mph 5.0 mph 48 % 0.00 in
10:05 64.1 °F 44.0 °F 30.17 in SW 5.3 mph 9.2 mph 48 % 0.00 in
10:10 64.5 °F 43.8 °F 30.17 in SSW 4.3 mph 6.0 mph 47 % 0.00 in
10:15 64.8 °F 43.5 °F 30.17 in WSW 4.5 mph 6.9 mph 46 % 0.00 in
10:21 64.9 °F 44.2 °F 30.17 in SW 4.6 mph 9.2 mph 47 % 0.00 in
10:26 65.0 °F 43.1 °F 30.17 in West 5.1 mph 9.2 mph 45 % 0.00 in
10:31 65.1 °F 43.2 °F 30.17 in WSW 6.8 mph 10.4 mph 45 % 0.00 in
10:36 65.3 °F 44.0 °F 30.17 in WSW 4.2 mph 8.1 mph 46 % 0.00 in
10:41 65.4 °F 43.5 °F 30.17 in SSW 4.1 mph 9.2 mph 45 % 0.00 in
10:46 65.4 °F 42.9 °F 30.17 in WSW 6.6 mph 10.4 mph 44 % 0.00 in
10:51 65.4 °F 43.5 °F 30.17 in WNW 3.3 mph 5.8 mph 45 % 0.00 in
10:56 65.3 °F 43.4 °F 30.17 in SW 5.3 mph 10.4 mph 45 % 0.00 in
11:01 65.4 °F 43.5 °F 30.17 in WSW 4.0 mph 6.9 mph 45 % 0.00 in
11:03 65.4 °F 42.9 °F 30.17 in SW 2.8 mph 6.0 mph 44 % 0.00 in
11:14 65.7 °F 43.8 °F 30.17 in WSW 4.8 mph 6.9 mph 45 % 0.00 in
11:19 65.9 °F 44.5 °F 30.17 in SSW 1.8 mph 4.0 mph 46 % 0.00 in
11:29 66.6 °F 44.0 °F 30.17 in West 3.8 mph 9.2 mph 44 % 0.00 in
11:34 66.9 °F 44.3 °F 30.16 in SW 6.0 mph 8.1 mph 44 % 0.00 in
11:44 67.4 °F 43.5 °F 30.16 in SSW 5.1 mph 9.2 mph 42 % 0.00 in
11:49 67.6 °F 44.9 °F 30.16 in West 1.6 mph 4.6 mph 44 % 0.00 in
11:54 67.6 °F 43.7 °F 30.15 in WSW 4.0 mph 8.1 mph 42 % 0.00 in
12:00 67.6 °F 44.9 °F 30.15 in WSW 2.1 mph 5.8 mph 44 % 0.00 in
12:05 67.8 °F 43.9 °F 30.15 in WSW 4.6 mph 8.0 mph 42 % 0.00 in
12:10 67.9 °F 44.0 °F 30.15 in West 4.4 mph 10.4 mph 42 % 0.00 in
12:15 68.0 °F 45.9 °F 30.14 in WNW 1.7 mph 5.0 mph 45 % 0.00 in
12:20 68.1 °F 45.4 °F 30.14 in SW 2.2 mph 5.8 mph 44 % 0.00 in
12:25 68.3 °F 44.9 °F 30.14 in West 2.2 mph 3.5 mph 43 % 0.00 in
12:30 68.5 °F 43.9 °F 30.14 in South 2.7 mph 4.6 mph 41 % 0.00 in
12:35 68.5 °F 43.9 °F 30.14 in WSW 2.0 mph 6.0 mph 41 % 0.00 in
12:40 68.6 °F 43.9 °F 30.13 in SW 4.4 mph 5.8 mph 41 % 0.00 in
12:45 68.6 °F 44.6 °F 30.13 in WNW 3.5 mph 9.0 mph 42 % 0.00 in
12:51 68.8 °F 44.8 °F 30.13 in SW 5.7 mph 6.0 mph 42 % 0.00 in
12:56 68.9 °F 44.9 °F 30.13 in WNW 3.2 mph 5.8 mph 42 % 0.00 in
13:01 69.0 °F 45.6 °F 30.13 in SW 4.2 mph 5.8 mph 43 % 0.00 in
13:06 69.3 °F 47.0 °F 30.13 in South 2.6 mph 5.8 mph 45 % 0.00 in
13:11 69.7 °F 47.4 °F 30.13 in SSW 2.6 mph 4.6 mph 45 % 0.00 in
13:16 70.0 °F 46.5 °F 30.12 in SSW 1.9 mph 4.6 mph 43 % 0.00 in
13:21 70.4 °F 48.0 °F 30.12 in SW 4.1 mph 6.9 mph 45 % 0.00 in
13:26 70.5 °F 48.1 °F 30.12 in SSW 5.2 mph 7.0 mph 45 % 0.00 in
13:31 70.5 °F 46.9 °F 30.12 in West 2.4 mph 3.5 mph 43 % 0.00 in
13:36 70.6 °F 45.7 °F 30.12 in SSW 3.3 mph 8.1 mph 41 % 0.00 in
13:42 70.6 °F 46.4 °F 30.12 in SSW 5.5 mph 5.5 mph 42 % 0.00 in
13:47 70.4 °F 45.6 °F 30.12 in SW 4.3 mph 6.0 mph 41 % 0.00 in
13:52 70.3 °F 46.1 °F 30.12 in WSW 1.3 mph 3.5 mph 42 % 0.00 in
13:57 70.1 °F 44.6 °F 30.11 in WSW 2.1 mph 5.8 mph 40 % 0.00 in
14:02 69.9 °F 45.8 °F 30.12 in SSE 0.3 mph 1.2 mph 42 % 0.00 in
14:07 69.6 °F 46.1 °F 30.12 in SSW 4.9 mph 6.9 mph 43 % 0.00 in
14:12 69.4 °F 45.9 °F 30.12 in SW 5.3 mph 10.4 mph 43 % 0.00 in
14:17 69.3 °F 47.0 °F 30.12 in SW 1.9 mph 3.5 mph 45 % 0.00 in
14:22 69.3 °F 46.4 °F 30.12 in SW 5.1 mph 8.1 mph 44 % 0.00 in
14:27 69.2 °F 45.7 °F 30.12 in SSW 4.7 mph 9.2 mph 43 % 0.00 in
14:33 69.3 °F 46.4 °F 30.12 in SSW 4.3 mph 8.1 mph 44 % 0.00 in
14:38 69.5 °F 46.0 °F 30.12 in SSW 3.5 mph 4.6 mph 43 % 0.00 in
14:43 69.5 °F 45.4 °F 30.12 in SSW 3.9 mph 10.4 mph 42 % 0.00 in
14:48 69.5 °F 45.4 °F 30.12 in WSW 7.4 mph 11.5 mph 42 % 0.00 in
14:58 69.3 °F 44.6 °F 30.12 in SW 5.0 mph 8.1 mph 41 % 0.00 in
15:03 69.2 °F 44.5 °F 30.12 in West 0.8 mph 5.8 mph 41 % 0.00 in
15:08 69.0 °F 44.3 °F 30.12 in WSW 6.4 mph 11.5 mph 41 % 0.00 in
15:13 68.5 °F 43.9 °F 30.12 in SSW 5.5 mph 16.1 mph 41 % 0.00 in
15:18 68.0 °F 44.0 °F 30.11 in SW 6.5 mph 9.2 mph 42 % 0.00 in
15:24 67.8 °F 44.5 °F 30.12 in SSW 5.9 mph 7.0 mph 43 % 0.00 in
15:29 67.5 °F 44.2 °F 30.12 in SSW 8.0 mph 12.7 mph 43 % 0.00 in
15:34 67.3 °F 44.0 °F 30.12 in SW 6.2 mph 15.0 mph 43 % 0.00 in
15:39 67.2 °F 44.5 °F 30.12 in SW 9.6 mph 13.8 mph 44 % 0.00 in
15:44 67.0 °F 43.8 °F 30.11 in SSW 5.8 mph 12.7 mph 43 % 0.00 in
15:49 66.8 °F 43.6 °F 30.12 in WSW 5.2 mph 11.0 mph 43 % 0.00 in
15:54 66.7 °F 44.1 °F 30.11 in WNW 2.8 mph 6.9 mph 44 % 0.00 in
15:59 66.5 °F 44.5 °F 30.11 in SSW 5.7 mph 12.0 mph 45 % 0.00 in
16:04 66.3 °F 44.3 °F 30.11 in SW 9.0 mph 18.4 mph 45 % 0.00 in
16:09 65.8 °F 45.0 °F 30.10 in SW 3.2 mph 6.9 mph 47 % 0.00 in
16:15 65.7 °F 45.5 °F 30.10 in SW 2.8 mph 8.1 mph 48 % 0.00 in
16:20 65.6 °F 47.0 °F 30.10 in SSW 3.2 mph 6.9 mph 51 % 0.00 in
16:25 65.4 °F 47.8 °F 30.10 in SSW 2.9 mph 5.8 mph 53 % 0.00 in
16:30 65.2 °F 47.6 °F 30.10 in East 5.0 mph 10.4 mph 53 % 0.00 in
16:35 64.8 °F 46.8 °F 30.10 in SSW 6.2 mph 11.5 mph 52 % 0.00 in
16:45 64.1 °F 47.1 °F 30.10 in SW 4.3 mph 9.2 mph 54 % 0.00 in
16:50 63.8 °F 47.3 °F 30.10 in SSW 4.3 mph 11.5 mph 55 % 0.00 in
16:55 63.6 °F 48.1 °F 30.10 in SSW 3.1 mph 5.0 mph 57 % 0.00 in
17:00 63.4 °F 47.4 °F 30.09 in SSW 7.3 mph 11.5 mph 56 % 0.00 in
17:06 63.1 °F 48.1 °F 30.10 in SW 5.1 mph 12.7 mph 58 % 0.00 in
17:11 62.9 °F 47.9 °F 30.10 in SSW 3.9 mph 6.9 mph 58 % 0.00 in
17:16 62.7 °F 47.7 °F 30.10 in WSW 4.8 mph 8.1 mph 58 % 0.00 in
17:21 62.5 °F 48.0 °F 30.10 in SSW 8.6 mph 16.1 mph 59 % 0.00 in
17:26 62.2 °F 48.6 °F 30.10 in SSW 1.6 mph 3.5 mph 61 % 0.00 in
17:31 62.1 °F 48.9 °F 30.10 in SSW 3.2 mph 4.6 mph 62 % 0.00 in
17:36 62.0 °F 49.7 °F 30.10 in SSW 2.0 mph 4.6 mph 64 % 0.00 in
17:41 61.8 °F 50.3 °F 30.10 in SSW 4.6 mph 6.9 mph 66 % 0.00 in
17:46 61.6 °F 50.5 °F 30.10 in SSW 3.9 mph 6.9 mph 67 % 0.00 in
17:51 61.5 °F 51.2 °F 30.10 in SW 3.5 mph 6.9 mph 69 % 0.00 in
17:57 61.3 °F 51.0 °F 30.10 in SSW 2.5 mph 11.5 mph 69 % 0.00 in
18:02 61.1 °F 50.8 °F 30.10 in SSW 4.1 mph 7.0 mph 69 % 0.00 in
18:07 61.0 °F 50.8 °F 30.10 in SSW 3.7 mph 6.0 mph 69 % 0.00 in
18:12 60.8 °F 50.6 °F 30.09 in SSW 5.7 mph 10.4 mph 69 % 0.00 in
18:17 60.6 °F 50.4 °F 30.09 in WSW 5.3 mph 9.2 mph 69 % 0.00 in
18:22 60.4 °F 50.2 °F 30.09 in SSW 0.5 mph 2.3 mph 69 % 0.00 in
18:27 60.3 °F 50.5 °F 30.09 in SSW 3.2 mph 4.6 mph 70 % 0.00 in
18:32 60.2 °F 50.4 °F 30.09 in WSW 4.6 mph 5.8 mph 70 % 0.00 in
18:37 60.2 °F 50.4 °F 30.09 in WNW 0.7 mph 6.9 mph 70 % 0.00 in
18:42 60.1 °F 50.3 °F 30.09 in WSW 4.2 mph 11.5 mph 70 % 0.00 in
18:48 59.9 °F 50.1 °F 30.09 in SSE 1.2 mph 4.6 mph 70 % 0.00 in
18:53 59.7 °F 49.5 °F 30.09 in South 3.7 mph 8.1 mph 69 % 0.00 in
18:58 59.6 °F 49.0 °F 30.08 in SSW 3.1 mph 5.8 mph 68 % 0.00 in
19:03 59.4 °F 49.2 °F 30.09 in SW 1.4 mph 5.8 mph 69 % 0.00 in
19:08 59.3 °F 49.1 °F 30.08 in South 1.1 mph 3.0 mph 69 % 0.00 in
19:13 59.2 °F 49.4 °F 30.08 in SW 3.7 mph 6.0 mph 70 % 0.00 in
19:18 59.1 °F 49.3 °F 30.09 in SW 1.4 mph 3.5 mph 70 % 0.00 in
19:28 58.9 °F 49.5 °F 30.09 in SW 1.9 mph 2.3 mph 71 % 0.00 in
19:33 58.7 °F 49.7 °F 30.08 in SSE 0.4 mph 3.5 mph 72 % 0.00 in
19:39 58.6 °F 50.0 °F 30.09 in SSW 3.1 mph 3.5 mph 73 % 0.00 in
19:44 58.4 °F 49.4 °F 30.08 in SSW 4.7 mph 9.2 mph 72 % 0.00 in
19:49 58.2 °F 49.6 °F 30.09 in SW 3.0 mph 12.0 mph 73 % 0.00 in
19:54 58.1 °F 49.5 °F 30.09 in SSW 2.7 mph 5.8 mph 73 % 0.00 in
19:59 57.9 °F 49.3 °F 30.09 in SSW 3.8 mph 6.9 mph 73 % 0.00 in
20:04 57.7 °F 49.1 °F 30.08 in SSW 1.8 mph 3.5 mph 73 % 0.00 in
20:09 57.6 °F 49.0 °F 30.08 in SW 2.8 mph 4.6 mph 73 % 0.00 in
20:14 57.5 °F 48.9 °F 30.08 in West 2.5 mph 5.8 mph 73 % 0.00 in
20:24 57.2 °F 49.0 °F 30.08 in SW 2.6 mph 5.8 mph 74 % 0.00 in
20:30 57.1 °F 49.2 °F 30.08 in SW 2.4 mph 5.8 mph 75 % 0.00 in
20:35 57.0 °F 49.2 °F 30.08 in WNW 1.0 mph 4.6 mph 75 % 0.00 in
20:40 56.9 °F 49.1 °F 30.09 in WSW 2.3 mph 3.5 mph 75 % 0.00 in
20:45 56.8 °F 49.3 °F 30.09 in WSW 3.0 mph 8.1 mph 76 % 0.00 in
20:50 56.7 °F 49.2 °F 30.09 in SW 1.6 mph 3.5 mph 76 % 0.00 in
20:55 56.6 °F 49.1 °F 30.10 in SW 2.1 mph 4.6 mph 76 % 0.00 in
21:00 56.6 °F 49.5 °F 30.10 in SW 1.4 mph 5.8 mph 77 % 0.00 in
21:05 56.5 °F 49.4 °F 30.09 in WSW 1.1 mph 4.6 mph 77 % 0.00 in
21:10 56.4 °F 49.6 °F 30.09 in SW 2.4 mph 5.0 mph 78 % 0.00 in
21:15 56.4 °F 49.6 °F 30.09 in SW 1.3 mph 3.5 mph 78 % 0.00 in
21:26 56.2 °F 49.8 °F 30.10 in SW 1.1 mph 3.5 mph 79 % 0.00 in
21:31 56.2 °F 49.8 °F 30.10 in WSW 1.7 mph 4.6 mph 79 % 0.00 in
21:36 56.1 °F 50.0 °F 30.10 in SW 2.0 mph 4.0 mph 80 % 0.00 in
21:41 56.1 °F 50.0 °F 30.10 in WSW 1.9 mph 3.5 mph 80 % 0.00 in
21:46 56.0 °F 50.3 °F 30.10 in SW 1.1 mph 3.5 mph 81 % 0.00 in
21:51 56.0 °F 50.3 °F 30.10 in SW 2.7 mph 5.0 mph 81 % 0.00 in
21:56 55.9 °F 50.2 °F 30.10 in WSW 2.0 mph 4.6 mph 81 % 0.00 in
22:01 55.9 °F 50.5 °F 30.10 in WSW 3.2 mph 4.6 mph 82 % 0.00 in
22:06 55.8 °F 50.4 °F 30.10 in WSW 0.9 mph 3.5 mph 82 % 0.00 in
22:12 55.7 °F 50.6 °F 30.10 in WSW 0.2 mph 1.2 mph 83 % 0.00 in
22:17 55.7 °F 50.6 °F 30.10 in WSW 1.4 mph 3.5 mph 83 % 0.00 in
22:22 55.7 °F 50.6 °F 30.09 in Calm   1.2 mph 83 % 0.00 in
22:27 55.6 °F 50.5 °F 30.10 in WSW 1.1 mph 3.5 mph 83 % 0.00 in
22:37 55.4 °F 50.3 °F 30.10 in Calm     83 % 0.00 in
22:42 55.4 °F 50.3 °F 30.09 in Calm   1.0 mph 83 % 0.00 in
22:47 55.3 °F 50.2 °F 30.09 in SW 1.4 mph 3.0 mph 83 % 0.00 in
22:52 55.2 °F 50.4 °F 30.09 in SW 0.5 mph 2.3 mph 84 % 0.00 in
22:57 55.1 °F 50.4 °F 30.09 in SW 0.5 mph 2.3 mph 84 % 0.00 in
23:02 55.1 °F 50.4 °F 30.09 in SW 0.4 mph 1.0 mph 84 % 0.00 in
23:08 55.0 °F 50.6 °F 30.09 in WSW 2.4 mph 4.0 mph 85 % 0.00 in
23:13 54.9 °F 50.5 °F 30.10 in SW 1.8 mph 3.5 mph 85 % 0.00 in
23:18 54.8 °F 50.4 °F 30.10 in WSW 1.7 mph 3.5 mph 85 % 0.00 in
23:23 54.7 °F 50.3 °F 30.09 in SW 1.4 mph 3.5 mph 85 % 0.00 in
23:28 54.6 °F 50.5 °F 30.09 in SW 0.1 mph 1.2 mph 86 % 0.00 in
23:33 54.6 °F 50.2 °F 30.09 in SW 0.2 mph 2.3 mph 85 % 0.00 in
23:38 54.5 °F 50.1 °F 30.09 in Calm   1.2 mph 85 % 0.00 in
23:43 54.5 °F 50.1 °F 30.09 in SW 0.6 mph 1.2 mph 85 % 0.00 in
23:48 54.4 °F 50.0 °F 30.09 in SW 1.5 mph 3.5 mph 85 % 0.00 in
23:53 54.2 °F 49.8 °F 30.09 in SW 0.5 mph 1.2 mph 85 % 0.00 in
23:59 54.1 °F 50.0 °F 30.09 in Calm     86 % 0.00 in
Crab Meadow Weather
Compliments of Weather Underground - 2.75 mb

Script developed by  Jim McMurry - jmcmurry@mwt.net Adapted for the template by  Wim van der Kuil - Leuven-Template.eu

Weather Terms: Severe Thunderstorm Watch - Conditions are favorable for the development of severe thunderstorms in and close to the watch area. These watches are issued for large areas by the Storm Prediction Center in Norman, Oklahoma, and are usually valid for four to six hours.